Location: Rotheul
(50.2849°N, 11.2349°E)
Time: 01:05:58
(UTC+02:00)

ISS - Pass Details

Date: 15 September 2018
Orbit: 403 x 408 km, 51.6° (Epoch: 23 September)

Event Time Altitude Azimuth Distance (km) Brightness Sun altitude
Exits shadow 04:59:59 56° 214° (SSW) 489 -3.8 -17.6°
Maximum altitude 05:00:05 56° 204° (SSW) 487 -3.8 -17.6°
Drops below altitude 10° 05:03:18 10° 125° (SE) 1,458 -0.7 -17.1°
Sets 05:05:23 0° 121° (ESE) 2,314 0.5 -16.8°
